TimeAKST,TemperatureF,Dew PointF,Humidity,Sea Level PressureIn,VisibilityMPH,Wind Direction,Wind SpeedMPH,Gust SpeedMPH,PrecipitationIn,Events,Conditions,WindDirDegrees,DateUTC
12:16 AM,-7.6,-14.8,71,29.81,10.0,West,5.8,-,N/A,,Clear,260,2013-03-01 09:16:00
12:56 AM,-9.4,-16.6,71,29.82,10.0,West,6.9,-,N/A,,Clear,270,2013-03-01 09:56:00
1:16 AM,-11.2,-20.2,64,29.83,10.0,West,5.8,-,N/A,,Clear,270,2013-03-01 10:16:00
1:36 AM,-11.2,-20.2,64,29.84,10.0,West,5.8,-,N/A,,Clear,280,2013-03-01 10:36:00
1:56 AM,-11.2,-18.4,70,29.85,10.0,West,4.6,-,N/A,,Clear,260,2013-03-01 10:56:00
2:16 AM,-11.2,-20.2,64,29.86,10.0,West,3.5,-,N/A,,Partly Cloudy,260,2013-03-01 11:16:00
2:56 AM,-13.0,-20.2,70,29.88,10.0,West,5.8,-,N/A,,Clear,280,2013-03-01 11:56:00
3:36 AM,-9999,-9999,N/A,29.89,10.0,West,3.5,-,N/A,,Clear,270,2013-03-01 12:36:00
3:56 AM,-13.0,-25.6,53,29.90,10.0,West,3.5,-,N/A,,Clear,270,2013-03-01 12:56:00
4:16 AM,-16.6,-27.4,58,29.91,10.0,Calm,Calm,-,N/A,,Scattered Clouds,0,2013-03-01 13:16:00
4:36 AM,-16.6,-23.8,70,29.92,10.0,West,3.5,-,N/A,,Overcast,260,2013-03-01 13:36:00
4:56 AM,-16.6,-27.4,58,29.93,10.0,Calm,Calm,-,N/A,,Mostly Cloudy,0,2013-03-01 13:56:00
5:16 AM,-16.6,-25.6,64,29.94,10.0,Calm,Calm,-,N/A,,Overcast,0,2013-03-01 14:16:00
5:36 AM,-16.6,-25.6,64,29.95,10.0,Calm,Calm,-,N/A,,Overcast,0,2013-03-01 14:36:00
5:56 AM,-16.6,-22.0,76,29.96,10.0,Calm,Calm,-,N/A,,Scattered Clouds,0,2013-03-01 14:56:00
6:16 AM,-18.4,-29.2,58,29.97,10.0,Calm,Calm,-,N/A,,Clear,0,2013-03-01 15:16:00
6:36 AM,-18.4,-25.6,70,29.97,10.0,WSW,4.6,-,N/A,,Clear,240,2013-03-01 15:36:00
6:56 AM,-20.2,-9999,N/A,29.98,10.0,WSW,3.5,-,N/A,,Clear,240,2013-03-01 15:56:00
7:16 AM,-22.0,-9999,N/A,29.98,10.0,West,3.5,-,N/A,,Clear,270,2013-03-01 16:16:00
7:36 AM,-16.6,-22.0,76,29.99,10.0,Calm,Calm,-,N/A,,Clear,0,2013-03-01 16:36:00
7:56 AM,-20.2,-9999,N/A,30.00,10.0,Calm,Calm,-,N/A,,Clear,0,2013-03-01 16:56:00
8:16 AM,-20.2,-9999,N/A,30.01,10.0,Calm,Calm,-,N/A,,Clear,0,2013-03-01 17:16:00
8:36 AM,-20.2,-23.8,83,30.01,9.0,Calm,Calm,-,N/A,,Clear,0,2013-03-01 17:36:00
8:56 AM,-22.0,-9999,N/A,30.02,10.0,Calm,Calm,-,N/A,,Clear,0,2013-03-01 17:56:00
9:16 AM,-20.2,-9999,N/A,30.03,10.0,Calm,Calm,-,N/A,,Clear,0,2013-03-01 18:16:00
9:36 AM,-22.0,-27.4,76,30.03,10.0,Calm,Calm,-,N/A,,Clear,0,2013-03-01 18:36:00
9:56 AM,-20.2,-9999,N/A,30.04,10.0,Calm,Calm,-,N/A,,Clear,0,2013-03-01 18:56:00
10:16 AM,-18.4,-23.8,76,30.05,10.0,Calm,Calm,-,N/A,,Clear,0,2013-03-01 19:16:00
10:36 AM,-20.2,-29.2,63,30.06,8.0,Calm,Calm,-,N/A,,Clear,0,2013-03-01 19:36:00
10:56 AM,-22.0,-9999,N/A,30.07,10.0,Calm,Calm,-,N/A,,Clear,0,2013-03-01 19:56:00
11:16 AM,-20.2,-23.8,83,30.08,10.0,Calm,Calm,-,0.06,,Clear,0,2013-03-01 20:16:00
11:36 AM,-18.4,-22.0,84,30.08,10.0,Calm,Calm,-,0.06,,Clear,0,2013-03-01 20:36:00
11:56 AM,-18.4,-29.2,58,30.09,10.0,Calm,Calm,-,0.06,,Clear,0,2013-03-01 20:56:00
12:16 PM,-16.6,-18.4,92,30.09,10.0,Calm,Calm,-,N/A,,Clear,0,2013-03-01 21:16:00
12:36 PM,-14.8,-29.2,48,30.10,10.0,Calm,Calm,-,N/A,,Clear,0,2013-03-01 21:36:00
12:56 PM,-13.0,-14.8,92,30.10,10.0,NNW,8.1,-,N/A,,Clear,340,2013-03-01 21:56:00
1:16 PM,-11.2,-23.8,54,30.11,10.0,NNW,8.1,-,N/A,,Clear,330,2013-03-01 22:16:00
1:36 PM,-11.2,-16.6,77,30.12,10.0,North,5.8,-,N/A,,Clear,360,2013-03-01 22:36:00
1:56 PM,-11.2,-20.2,64,30.12,10.0,NNW,3.5,-,N/A,,Clear,330,2013-03-01 22:56:00
2:16 PM,-11.2,-20.2,64,30.12,10.0,North,5.8,-,N/A,,Clear,350,2013-03-01 23:16:00
2:36 PM,-9.4,-18.4,65,30.13,10.0,North,5.8,-,N/A,,Clear,360,2013-03-01 23:36:00
2:56 PM,-9.4,-20.2,59,30.13,10.0,North,3.5,-,N/A,,Clear,350,2013-03-01 23:56:00
3:16 PM,-7.6,-16.6,65,30.13,10.0,Calm,Calm,-,N/A,,Clear,0,2013-03-02 00:16:00
3:36 PM,-7.6,-20.2,54,30.13,10.0,North,3.5,-,N/A,,Clear,350,2013-03-02 00:36:00
3:56 PM,-9.4,-22.0,54,30.13,10.0,North,4.6,-,N/A,,Clear,350,2013-03-02 00:56:00
4:16 PM,-7.6,-18.4,59,30.14,10.0,NNW,3.5,-,N/A,,Clear,330,2013-03-02 01:16:00
7:36 PM,-14.8,-25.6,58,30.15,10.0,Calm,Calm,-,N/A,,Clear,0,2013-03-02 04:36:00
11:16 PM,-27.4,-9999,N/A,30.19,10.0,Calm,Calm,-,N/A,,Clear,0,2013-03-02 08:16:00
11:56 PM,-25.6,-9999,N/A,30.19,10.0,Calm,Calm,-,N/A,,Clear,0,2013-03-02 08:56:00